This demonstration page uses our WeatherBlox Daily Observations layout. Learn more.

Left ArrowRight Arrow

Hourly Observations for June 30, 2022

Temp ( °F °C ) Dew Point ( °F °C ) Humidity (%) Winds ( mph kmh ) Pressure ( in mb ) Visibility ( mi km ) Precip ( " mm )
12:54 am 00:54 Clear 79 26.1 55 12.8 44 44 S 21 33 29.93 1013 10 16 0.00 0.00
1:54 am 01:54 Clear 78 25.6 54 12.2 43 43 SSW 20 31 29.93 1014 10 16 0.00 0.00
2:54 am 02:54 Clear 76 24.4 54 12.2 47 47 S 20 31 29.92 1013 10 16 0.00 0.00
3:54 am 03:54 Clear 76 24.4 54 12.2 47 47 S 16 26 29.93 1014 10 16 0.00 0.00
4:54 am 04:54 Clear 73 22.8 54 12.2 51 51 S 13 20 29.95 1014 10 16 0.00 0.00
5:54 am 05:54 Clear 72 22.2 54 12.2 53 53 S 16 26 29.91 1013 10 16 0.00 0.00
6:54 am 06:54 Sunny 73 22.8 55 12.8 53 53 SSW 18 30 29.89 1012 10 16 0.00 0.00
7:54 am 07:54 Sunny 75 23.9 56 13.3 52 52 SSW 17 28 29.89 1012 10 16 0.00 0.00
8:54 am 08:54 Sunny 76 24.4 57 13.9 52 52 SSW 16 26 29.90 1013 10 16 0.00 0.00
9:54 am 09:54 Sunny 81 27.2 60 15.6 49 49 SSW 15 24 29.87 1012 10 16 0.00 0.00
10:54 am 10:54 Sunny 84 28.9 60 15.6 44 44 SW 20 31 29.86 1011 10 16 0.00 0.00
11:54 am 11:54 Sunny 88 31.1 60 15.6 39 39 SW 18 30 29.84 1011 10 16 0.00 0.00
12:54 pm 12:54 Sunny 90 32.2 62 16.7 39 39 SSW 16 26 29.83 1010 10 16 0.00 0.00
1:54 pm 13:54 Sunny 91 32.8 63 17.2 39 39 SW 17 28 29.82 1010 10 16 0.00 0.00
2:54 pm 14:54 Sunny 92 33.3 64 17.8 40 40 SW 15 24 29.80 1009 10 16 0.00 0.00
3:54 pm 15:54 Sunny 94 34.4 64 17.8 37 37 WSW 10 17 29.81 1010 10 16 0.00 0.00
4:54 pm 16:54 Sunny 94 34.4 64 17.8 37 37 WSW 10 17 29.81 1009 10 16 0.00 0.00
5:54 pm 17:54 Sunny 93 33.9 65 18.3 40 40 W 7 11 29.80 1009 10 16 0.00 0.00
6:54 pm 18:54 Sunny 93 33.9 64 17.8 38 38 VRB 3 6 29.80 1009 10 16 0.00 0.00
7:54 pm 19:54 Sunny 87 30.6 69 20.6 55 55 N 9 15 29.82 1010 10 16 0.00 0.00
8:54 pm 20:54 Sunny 87 30.6 68 20 53 53 N 8 13 29.84 1011 10 16 0.00 0.00
9:54 pm 21:54 Clear 81 27.2 70 21.1 69 69 NNE 7 11 29.85 1011 10 16 0.00 0.00
10:54 pm 22:54 Clear 83 28.3 67 19.4 59 59 NNE 3 6 29.87 1012 10 16 0.00 0.00
11:54 pm 23:54 Clear 82 27.8 69 20.6 65 65 W 8 13 29.89 1012 10 16 0.00 0.00

Powered by AerisWeather